Time,TemperatureF,DewpointF,PressureIn,WindDirection,WindDirectionDegrees,WindSpeedMPH,WindSpeedGustMPH,Humidity,HourlyPrecipIn,Conditions,Clouds,dailyrainin,SoftwareType,DateUTC
2013-11-26 00:02:00,30.8,24.8,30.02,NW,315,0.0,1.0,78,0.00,,,0.00,WUHU216HW,2013-11-26 07:02:00,
2013-11-26 00:07:00,30.8,24.8,30.02,NNE,23,0.0,1.0,78,0.00,,,0.00,WUHU216HW,2013-11-26 07:07:00,
2013-11-26 00:12:00,31.0,24.9,30.02,NW,315,0.0,0.0,78,0.00,,,0.00,WUHU216HW,2013-11-26 07:12:00,
2013-11-26 00:17:00,31.0,24.9,30.02,NW,315,0.0,0.0,78,0.00,,,0.00,WUHU216HW,2013-11-26 07:17:00,
2013-11-26 00:22:00,31.0,24.9,30.02,North,0,0.0,1.0,78,0.00,,,0.00,WUHU216HW,2013-11-26 07:22:00,
2013-11-26 00:27:00,31.1,25.4,30.01,ENE,68,1.0,1.0,79,0.00,,,0.00,WUHU216HW,2013-11-26 07:27:00,
2013-11-26 00:32:00,31.0,25.2,30.01,ESE,113,0.0,1.0,79,0.00,,,0.00,WUHU216HW,2013-11-26 07:32:00,
2013-11-26 00:37:00,30.8,24.8,30.01,ESE,113,0.0,1.0,78,0.00,,,0.00,WUHU216HW,2013-11-26 07:37:00,
2013-11-26 00:42:00,30.6,24.6,30.02,SE,135,0.0,0.0,78,0.00,,,0.00,WUHU216HW,2013-11-26 07:42:00,
2013-11-26 00:47:00,30.4,24.4,30.02,ESE,113,0.0,0.0,78,0.00,,,0.00,WUHU216HW,2013-11-26 07:47:00,
2013-11-26 00:52:00,30.2,24.5,30.02,ESE,113,0.0,0.0,79,0.00,,,0.00,WUHU216HW,2013-11-26 07:52:00,
2013-11-26 00:57:00,30.1,24.3,30.02,ESE,113,0.0,0.0,79,0.00,,,0.00,WUHU216HW,2013-11-26 07:57:00,
2013-11-26 01:02:00,29.9,23.9,30.02,ESE,113,0.0,0.0,78,0.00,,,0.00,WUHU216HW,2013-11-26 08:02:00,
2013-11-26 01:07:00,29.7,23.7,30.02,ESE,113,0.0,0.0,78,0.00,,,0.00,WUHU216HW,2013-11-26 08:07:00,
2013-11-26 01:12:00,29.5,23.5,30.02,ESE,113,0.0,0.0,78,0.00,,,0.00,WUHU216HW,2013-11-26 08:12:00,
2013-11-26 01:17:00,29.3,23.7,30.02,ESE,113,0.0,0.0,79,0.00,,,0.00,WUHU216HW,2013-11-26 08:17:00,
2013-11-26 01:22:00,29.3,23.7,30.02,ESE,113,0.0,0.0,79,0.00,,,0.00,WUHU216HW,2013-11-26 08:22:00,
2013-11-26 01:27:00,29.2,23.5,30.02,ESE,113,0.0,0.0,79,0.00,,,0.00,WUHU216HW,2013-11-26 08:27:00,
2013-11-26 01:32:00,29.2,23.8,30.02,East,90,0.0,1.0,80,0.00,,,0.00,WUHU216HW,2013-11-26 08:32:00,
2013-11-26 01:37:00,29.2,23.8,30.02,East,90,0.0,1.0,80,0.00,,,0.00,WUHU216HW,2013-11-26 08:37:00,
2013-11-26 01:42:00,29.2,23.8,30.02,ENE,68,0.0,1.0,80,0.00,,,0.00,WUHU216HW,2013-11-26 08:42:00,
2013-11-26 01:47:00,29.0,23.9,30.02,ESE,113,0.0,0.0,81,0.00,,,0.00,WUHU216HW,2013-11-26 08:47:00,
2013-11-26 01:52:00,29.0,23.6,30.03,ESE,113,0.0,0.0,80,0.00,,,0.00,WUHU216HW,2013-11-26 08:52:00,
2013-11-26 01:57:00,28.8,23.1,30.03,ESE,113,0.0,0.0,79,0.00,,,0.00,WUHU216HW,2013-11-26 08:57:00,
2013-11-26 02:02:00,28.8,23.4,30.02,East,90,1.0,1.0,80,0.00,,,0.00,WUHU216HW,2013-11-26 09:02:00,
2013-11-26 02:07:00,28.8,23.4,30.02,ENE,68,0.0,1.0,80,0.00,,,0.00,WUHU216HW,2013-11-26 09:07:00,
2013-11-26 02:12:00,28.8,23.4,30.02,ENE,68,0.0,1.0,80,0.00,,,0.00,WUHU216HW,2013-11-26 09:12:00,
2013-11-26 02:17:00,28.8,23.4,30.02,ENE,68,0.0,0.0,80,0.00,,,0.00,WUHU216HW,2013-11-26 09:17:00,
2013-11-26 02:22:00,28.6,23.2,30.02,SSE,158,0.0,0.0,80,0.00,,,0.00,WUHU216HW,2013-11-26 09:22:00,
2013-11-26 02:27:00,28.4,23.0,30.02,SSE,158,0.0,0.0,80,0.00,,,0.00,WUHU216HW,2013-11-26 09:27:00,
2013-11-26 02:32:00,28.4,23.0,30.02,SSE,158,0.0,0.0,80,0.00,,,0.00,WUHU216HW,2013-11-26 09:32:00,
2013-11-26 02:37:00,28.4,23.0,30.02,SE,135,0.0,0.0,80,0.00,,,0.00,WUHU216HW,2013-11-26 09:37:00,
2013-11-26 02:42:00,28.3,23.1,30.02,NE,45,0.0,0.0,81,0.00,,,0.00,WUHU216HW,2013-11-26 09:42:00,
2013-11-26 02:47:00,28.3,23.1,30.02,NE,45,0.0,0.0,81,0.00,,,0.00,WUHU216HW,2013-11-26 09:47:00,
2013-11-26 02:52:00,28.1,23.0,30.02,East,90,0.0,0.0,81,0.00,,,0.00,WUHU216HW,2013-11-26 09:52:00,
2013-11-26 02:57:00,28.1,23.0,30.02,East,90,0.0,0.0,81,0.00,,,0.00,WUHU216HW,2013-11-26 09:57:00,
2013-11-26 03:02:00,27.9,22.8,30.02,East,90,0.0,0.0,81,0.00,,,0.00,WUHU216HW,2013-11-26 10:02:00,
2013-11-26 03:07:00,27.9,22.8,30.02,East,90,0.0,0.0,81,0.00,,,0.00,WUHU216HW,2013-11-26 10:07:00,
2013-11-26 03:12:00,27.7,22.6,30.03,East,90,0.0,0.0,81,0.00,,,0.00,WUHU216HW,2013-11-26 10:12:00,
2013-11-26 03:17:00,27.7,22.6,30.03,East,90,0.0,0.0,81,0.00,,,0.00,WUHU216HW,2013-11-26 10:17:00,
2013-11-26 03:22:00,27.7,22.6,30.02,East,90,0.0,1.0,81,0.00,,,0.00,WUHU216HW,2013-11-26 10:22:00,
2013-11-26 03:27:00,27.7,22.6,30.03,ENE,68,0.0,1.0,81,0.00,,,0.00,WUHU216HW,2013-11-26 10:27:00,
2013-11-26 03:32:00,27.7,22.6,30.03,NE,45,0.0,0.0,81,0.00,,,0.00,WUHU216HW,2013-11-26 10:32:00,
2013-11-26 03:37:00,27.7,22.6,30.03,NNW,338,0.0,0.0,81,0.00,,,0.00,WUHU216HW,2013-11-26 10:37:00,
2013-11-26 03:42:00,27.5,22.4,30.03,West,270,0.0,2.0,81,0.00,,,0.00,WUHU216HW,2013-11-26 10:42:00,
2013-11-26 03:47:00,27.4,22.2,30.03,WSW,248,0.0,2.0,81,0.00,,,0.00,WUHU216HW,2013-11-26 10:47:00,
2013-11-26 03:52:00,27.4,22.5,30.03,WSW,248,0.0,0.0,82,0.00,,,0.00,WUHU216HW,2013-11-26 10:52:00,
2013-11-26 03:57:00,27.4,22.2,30.03,WNW,293,0.0,0.0,81,0.00,,,0.00,WUHU216HW,2013-11-26 10:57:00,
2013-11-26 04:02:00,27.4,22.5,30.03,NNW,338,0.0,0.0,82,0.00,,,0.00,WUHU216HW,2013-11-26 11:02:00,
2013-11-26 04:07:00,27.4,22.5,30.03,NNE,23,0.0,0.0,82,0.00,,,0.00,WUHU216HW,2013-11-26 11:07:00,
2013-11-26 04:12:00,27.4,22.5,30.03,NNE,23,0.0,0.0,82,0.00,,,0.00,WUHU216HW,2013-11-26 11:12:00,
2013-11-26 04:17:00,27.4,22.5,30.03,East,90,0.0,1.0,82,0.00,,,0.00,WUHU216HW,2013-11-26 11:17:00,
2013-11-26 04:22:00,27.0,21.9,30.04,East,90,0.0,1.0,81,0.00,,,0.00,WUHU216HW,2013-11-26 11:22:00,
2013-11-26 04:27:00,27.0,21.9,30.04,East,90,0.0,0.0,81,0.00,,,0.00,WUHU216HW,2013-11-26 11:27:00,
2013-11-26 04:32:00,27.0,22.1,30.04,East,90,0.0,0.0,82,0.00,,,0.00,WUHU216HW,2013-11-26 11:32:00,
2013-11-26 04:37:00,26.8,22.0,30.04,East,90,0.0,0.0,82,0.00,,,0.00,WUHU216HW,2013-11-26 11:37:00,
2013-11-26 04:42:00,26.6,21.8,30.04,East,90,0.0,0.0,82,0.00,,,0.00,WUHU216HW,2013-11-26 11:42:00,
2013-11-26 04:47:00,26.6,22.2,30.04,East,90,0.0,0.0,83,0.00,,,0.00,WUHU216HW,2013-11-26 11:47:00,
2013-11-26 04:52:00,26.5,21.7,30.04,East,90,0.0,0.0,82,0.00,,,0.00,WUHU216HW,2013-11-26 11:52:00,
2013-11-26 04:57:00,26.5,21.7,30.04,East,90,0.0,0.0,82,0.00,,,0.00,WUHU216HW,2013-11-26 11:57:00,
2013-11-26 05:02:00,26.3,21.5,30.04,East,90,0.0,0.0,82,0.00,,,0.00,WUHU216HW,2013-11-26 12:02:00,
2013-11-26 05:07:00,26.3,21.5,30.04,East,90,0.0,0.0,82,0.00,,,0.00,WUHU216HW,2013-11-26 12:07:00,
2013-11-26 05:12:00,26.3,21.5,30.04,ENE,68,0.0,0.0,82,0.00,,,0.00,WUHU216HW,2013-11-26 12:12:00,
2013-11-26 05:17:00,26.3,21.8,30.04,ENE,68,0.0,0.0,83,0.00,,,0.00,WUHU216HW,2013-11-26 12:17:00,
2013-11-26 05:22:00,26.3,21.8,30.04,East,90,0.0,0.0,83,0.00,,,0.00,WUHU216HW,2013-11-26 12:22:00,
2013-11-26 05:27:00,26.5,22.0,30.04,ENE,68,0.0,0.0,83,0.00,,,0.00,WUHU216HW,2013-11-26 12:27:00,
2013-11-26 05:32:00,26.5,22.0,30.05,ENE,68,0.0,0.0,83,0.00,,,0.00,WUHU216HW,2013-11-26 12:32:00,
2013-11-26 05:37:00,26.3,21.8,30.05,ENE,68,0.0,0.0,83,0.00,,,0.00,WUHU216HW,2013-11-26 12:37:00,
2013-11-26 05:42:00,26.3,21.8,30.05,ENE,68,0.0,0.0,83,0.00,,,0.00,WUHU216HW,2013-11-26 12:42:00,
2013-11-26 05:47:00,26.1,21.3,30.05,ENE,68,0.0,0.0,82,0.00,,,0.00,WUHU216HW,2013-11-26 12:47:00,
2013-11-26 05:52:00,25.9,21.2,30.05,East,90,0.0,0.0,82,0.00,,,0.00,WUHU216HW,2013-11-26 12:52:00,
2013-11-26 05:57:00,25.9,21.2,30.05,ENE,68,0.0,0.0,82,0.00,,,0.00,WUHU216HW,2013-11-26 12:57:00,
2013-11-26 06:02:00,25.9,21.2,30.05,ENE,68,0.0,0.0,82,0.00,,,0.00,WUHU216HW,2013-11-26 13:02:00,
2013-11-26 06:07:00,25.9,21.2,30.05,WSW,248,0.0,0.0,82,0.00,,,0.00,WUHU216HW,2013-11-26 13:07:00,
2013-11-26 06:12:00,25.9,21.2,30.05,WSW,248,0.0,0.0,82,0.00,,,0.00,WUHU216HW,2013-11-26 13:12:00,
2013-11-26 06:17:00,25.9,21.2,30.05,SW,225,0.0,1.0,82,0.00,,,0.00,WUHU216HW,2013-11-26 13:17:00,
2013-11-26 06:22:00,25.7,21.0,30.05,SW,225,0.0,1.0,82,0.00,,,0.00,WUHU216HW,2013-11-26 13:22:00,
2013-11-26 06:27:00,25.7,21.0,30.05,WSW,248,0.0,0.0,82,0.00,,,0.00,WUHU216HW,2013-11-26 13:27:00,
2013-11-26 06:32:00,25.7,21.0,30.05,WSW,248,0.0,0.0,82,0.00,,,0.00,WUHU216HW,2013-11-26 13:32:00,
2013-11-26 06:37:00,25.7,21.0,30.05,North,0,0.0,0.0,82,0.00,,,0.00,WUHU216HW,2013-11-26 13:37:00,
2013-11-26 06:42:00,26.1,21.6,30.06,NNW,338,0.0,0.0,83,0.00,,,0.00,WUHU216HW,2013-11-26 13:42:00,
2013-11-26 06:47:00,26.1,21.6,30.06,NNW,338,0.0,0.0,83,0.00,,,0.00,WUHU216HW,2013-11-26 13:47:00,
2013-11-26 06:52:00,26.1,21.3,30.06,North,0,0.0,0.0,82,0.00,,,0.00,WUHU216HW,2013-11-26 13:52:00,
2013-11-26 06:57:00,25.9,21.4,30.06,NE,45,0.0,0.0,83,0.00,,,0.00,WUHU216HW,2013-11-26 13:57:00,
2013-11-26 07:02:00,25.9,21.4,30.06,NE,45,0.0,0.0,83,0.00,,,0.00,WUHU216HW,2013-11-26 14:02:00,
2013-11-26 07:07:00,25.9,21.4,30.07,NE,45,0.0,0.0,83,0.00,,,0.00,WUHU216HW,2013-11-26 14:07:00,
2013-11-26 07:12:00,25.9,21.4,30.07,NE,45,0.0,0.0,83,0.00,,,0.00,WUHU216HW,2013-11-26 14:12:00,
2013-11-26 07:17:00,25.9,21.2,30.07,NE,45,0.0,0.0,82,0.00,,,0.00,WUHU216HW,2013-11-26 14:17:00,
2013-11-26 07:22:00,25.9,21.2,30.07,NE,45,0.0,0.0,82,0.00,,,0.00,WUHU216HW,2013-11-26 14:22:00,
2013-11-26 07:27:00,26.1,21.3,30.07,NE,45,0.0,0.0,82,0.00,,,0.00,WUHU216HW,2013-11-26 14:27:00,
2013-11-26 07:32:00,26.3,21.8,30.07,NE,45,0.0,0.0,83,0.00,,,0.00,WUHU216HW,2013-11-26 14:32:00,
2013-11-26 07:37:00,26.5,22.0,30.08,WSW,248,0.0,1.0,83,0.00,,,0.00,WUHU216HW,2013-11-26 14:37:00,
2013-11-26 07:42:00,26.6,22.2,30.08,West,270,1.0,1.0,83,0.00,,,0.00,WUHU216HW,2013-11-26 14:42:00,
2013-11-26 07:47:00,27.0,22.5,30.08,NW,315,2.0,2.0,83,0.00,,,0.00,WUHU216HW,2013-11-26 14:47:00,
2013-11-26 07:52:00,27.5,23.3,30.08,WNW,293,0.0,2.0,84,0.00,,,0.00,WUHU216HW,2013-11-26 14:52:00,
2013-11-26 07:57:00,28.1,23.9,30.08,NW,315,2.0,2.0,84,0.00,,,0.00,WUHU216HW,2013-11-26 14:57:00,
2013-11-26 08:02:00,28.4,24.2,30.09,NW,315,3.0,4.0,84,0.00,,,0.00,WUHU216HW,2013-11-26 15:02:00,
2013-11-26 08:07:00,28.8,24.6,30.09,West,270,2.0,4.0,84,0.00,,,0.00,WUHU216HW,2013-11-26 15:07:00,
2013-11-26 08:12:00,29.0,24.5,30.09,WNW,293,2.0,3.0,83,0.00,,,0.00,WUHU216HW,2013-11-26 15:12:00,
2013-11-26 08:17:00,30.4,26.2,30.09,NW,315,3.0,3.0,84,0.00,,,0.00,WUHU216HW,2013-11-26 15:17:00,
2013-11-26 08:22:00,33.3,28.4,30.10,NW,315,3.0,3.0,82,0.00,,,0.00,WUHU216HW,2013-11-26 15:22:00,
2013-11-26 08:27:00,35.5,30.2,30.10,NNW,338,3.0,3.0,81,0.00,,,0.00,WUHU216HW,2013-11-26 15:27:00,
2013-11-26 08:32:00,36.7,30.8,30.10,NW,315,3.0,5.0,79,0.00,,,0.00,WUHU216HW,2013-11-26 15:32:00,
2013-11-26 08:37:00,37.3,30.4,30.10,WNW,293,4.0,5.0,76,0.00,,,0.00,WUHU216HW,2013-11-26 15:37:00,
2013-11-26 08:42:00,37.3,30.7,30.10,NNW,338,3.0,5.0,77,0.00,,,0.00,WUHU216HW,2013-11-26 15:42:00,
2013-11-26 08:47:00,37.1,30.3,30.10,NW,315,3.0,4.0,76,0.00,,,0.00,WUHU216HW,2013-11-26 15:47:00,
2013-11-26 08:52:00,37.3,30.1,30.10,NW,315,4.0,4.0,75,0.00,,,0.00,WUHU216HW,2013-11-26 15:52:00,
2013-11-26 08:57:00,37.1,28.6,30.10,NNW,338,2.0,6.0,71,0.00,,,0.00,WUHU216HW,2013-11-26 15:57:00,
2013-11-26 09:02:00,36.0,27.2,30.10,WNW,293,0.0,6.0,70,0.00,,,0.00,WUHU216HW,2013-11-26 16:02:00,
2013-11-26 09:07:00,36.4,28.5,30.10,NW,315,5.0,5.0,73,0.00,,,0.00,WUHU216HW,2013-11-26 16:07:00,
2013-11-26 09:12:00,37.4,29.3,30.10,NNW,338,3.0,5.0,72,0.00,,,0.00,WUHU216HW,2013-11-26 16:12:00,
2013-11-26 09:17:00,38.0,28.4,30.10,North,0,3.0,5.0,68,0.00,,,0.00,WUHU216HW,2013-11-26 16:17:00,
2013-11-26 09:22:00,37.8,27.8,30.11,North,0,2.0,5.0,67,0.00,,,0.00,WUHU216HW,2013-11-26 16:22:00,
2013-11-26 09:27:00,37.6,27.6,30.10,WNW,293,3.0,5.0,67,0.00,,,0.00,WUHU216HW,2013-11-26 16:27:00,
2013-11-26 09:32:00,38.0,28.4,30.10,NNE,23,5.0,7.0,68,0.00,,,0.00,WUHU216HW,2013-11-26 16:32:00,
2013-11-26 09:37:00,37.3,27.3,30.10,North,0,2.0,7.0,67,0.00,,,0.00,WUHU216HW,2013-11-26 16:37:00,
2013-11-26 09:42:00,37.3,27.7,30.11,North,0,2.0,6.0,68,0.00,,,0.00,WUHU216HW,2013-11-26 16:42:00,
2013-11-26 09:47:00,38.0,28.0,30.10,NNE,23,2.0,6.0,67,0.00,,,0.00,WUHU216HW,2013-11-26 16:47:00,
2013-11-26 09:52:00,38.3,28.7,30.10,NW,315,2.0,5.0,68,0.00,,,0.00,WUHU216HW,2013-11-26 16:52:00,
2013-11-26 09:57:00,39.1,29.4,30.10,NNW,338,4.0,5.0,68,0.00,,,0.00,WUHU216HW,2013-11-26 16:57:00,
2013-11-26 10:02:00,40.0,30.3,30.10,NW,315,7.0,7.0,68,0.00,,,0.00,WUHU216HW,2013-11-26 17:02:00,
2013-11-26 10:07:00,40.7,30.2,30.10,North,0,3.0,7.0,66,0.00,,,0.00,WUHU216HW,2013-11-26 17:07:00,
2013-11-26 10:12:00,40.7,29.8,30.10,NW,315,4.0,7.0,65,0.00,,,0.00,WUHU216HW,2013-11-26 17:12:00,
2013-11-26 10:17:00,41.0,30.5,30.10,WNW,293,3.0,7.0,66,0.00,,,0.00,WUHU216HW,2013-11-26 17:17:00,
2013-11-26 10:22:00,41.4,30.5,30.10,NW,315,4.0,7.0,65,0.00,,,0.00,WUHU216HW,2013-11-26 17:22:00,
2013-11-26 10:27:00,41.6,31.1,30.10,WNW,293,4.0,6.0,66,0.00,,,0.00,WUHU216HW,2013-11-26 17:27:00,
2013-11-26 10:32:00,42.1,31.6,30.10,WSW,248,1.0,5.0,66,0.00,,,0.00,WUHU216HW,2013-11-26 17:32:00,
2013-11-26 10:37:00,41.9,30.3,30.10,WSW,248,2.0,5.0,63,0.00,,,0.00,WUHU216HW,2013-11-26 17:37:00,
2013-11-26 10:42:00,41.9,30.6,30.10,NNW,338,3.0,5.0,64,0.00,,,0.00,WUHU216HW,2013-11-26 17:42:00,
2013-11-26 10:47:00,42.3,31.0,30.10,NNW,338,2.0,7.0,64,0.00,,,0.00,WUHU216HW,2013-11-26 17:47:00,
2013-11-26 10:52:00,42.8,31.5,30.10,NW,315,5.0,7.0,64,0.00,,,0.00,WUHU216HW,2013-11-26 17:52:00,
2013-11-26 10:57:00,42.8,30.7,30.10,NNW,338,3.0,5.0,62,0.00,,,0.00,WUHU216HW,2013-11-26 17:57:00,
2013-11-26 11:02:00,42.3,30.2,30.09,NW,315,3.0,5.0,62,0.00,,,0.00,WUHU216HW,2013-11-26 18:02:00,
2013-11-26 11:07:00,42.7,30.9,30.09,NW,315,3.0,4.0,63,0.00,,,0.00,WUHU216HW,2013-11-26 18:07:00,
2013-11-26 11:12:00,43.2,31.4,30.09,NW,315,1.0,5.0,63,0.00,,,0.00,WUHU216HW,2013-11-26 18:12:00,
2013-11-26 11:17:00,43.6,31.4,30.08,NW,315,1.0,5.0,62,0.00,,,0.00,WUHU216HW,2013-11-26 18:17:00,
2013-11-26 11:22:00,44.1,31.5,30.08,NW,315,2.0,4.0,61,0.00,,,0.00,WUHU216HW,2013-11-26 18:22:00,
2013-11-26 11:27:00,44.5,31.9,30.08,WNW,293,4.0,4.0,61,0.00,,,0.00,WUHU216HW,2013-11-26 18:27:00,
2013-11-26 11:32:00,44.5,29.7,30.08,North,0,3.0,4.0,56,0.00,,,0.00,WUHU216HW,2013-11-26 18:32:00,
2013-11-26 11:37:00,43.7,29.4,30.08,NW,315,2.0,4.0,57,0.00,,,0.00,WUHU216HW,2013-11-26 18:37:00,
2013-11-26 11:42:00,43.9,29.6,30.08,NNW,338,4.0,5.0,57,0.00,,,0.00,WUHU216HW,2013-11-26 18:42:00,
2013-11-26 11:47:00,44.3,30.0,30.07,WNW,293,1.0,5.0,57,0.00,,,0.00,WUHU216HW,2013-11-26 18:47:00,
2013-11-26 11:52:00,44.5,30.2,30.07,NW,315,1.0,4.0,57,0.00,,,0.00,WUHU216HW,2013-11-26 18:52:00,
2013-11-26 11:57:00,44.8,31.0,30.07,NW,315,2.0,5.0,58,0.00,,,0.00,WUHU216HW,2013-11-26 18:57:00,
2013-11-26 12:02:00,45.4,31.0,30.07,NNW,338,3.0,5.0,57,0.00,,,0.00,WUHU216HW,2013-11-26 19:02:00,
2013-11-26 12:07:00,45.5,31.1,30.07,WNW,293,3.0,3.0,57,0.00,,,0.00,WUHU216HW,2013-11-26 19:07:00,
2013-11-26 12:12:00,45.7,30.9,30.07,NW,315,4.0,4.0,56,0.00,,,0.00,WUHU216HW,2013-11-26 19:12:00,
2013-11-26 12:17:00,45.7,30.9,30.07,WNW,293,3.0,5.0,56,0.00,,,0.00,WUHU216HW,2013-11-26 19:17:00,
2013-11-26 12:22:00,46.4,31.5,30.06,SE,135,1.0,5.0,56,0.00,,,0.00,WUHU216HW,2013-11-26 19:22:00,
2013-11-26 12:27:00,47.2,32.7,30.06,WSW,248,2.0,5.0,57,0.00,,,0.00,WUHU216HW,2013-11-26 19:27:00,
2013-11-26 12:32:00,47.3,31.0,30.06,North,0,1.0,5.0,53,0.00,,,0.00,WUHU216HW,2013-11-26 19:32:00,
2013-11-26 12:37:00,46.8,30.5,30.06,SW,225,1.0,3.0,53,0.00,,,0.00,WUHU216HW,2013-11-26 19:37:00,
2013-11-26 12:42:00,47.2,31.3,30.06,WSW,248,2.0,7.0,54,0.00,,,0.00,WUHU216HW,2013-11-26 19:42:00,
2013-11-26 12:47:00,47.5,31.1,30.06,ESE,113,0.0,7.0,53,0.00,,,0.00,WUHU216HW,2013-11-26 19:47:00,
2013-11-26 12:52:00,47.3,30.5,30.06,NNW,338,0.0,5.0,52,0.00,,,0.00,WUHU216HW,2013-11-26 19:52:00,
2013-11-26 12:57:00,46.8,30.5,30.06,NW,315,4.0,6.0,53,0.00,,,0.00,WUHU216HW,2013-11-26 19:57:00,
2013-11-26 13:02:00,47.2,30.8,30.06,WNW,293,2.0,6.0,53,0.00,,,0.00,WUHU216HW,2013-11-26 20:02:00,
2013-11-26 13:07:00,47.3,31.0,30.05,NNW,338,3.0,6.0,53,0.00,,,0.00,WUHU216HW,2013-11-26 20:07:00,
2013-11-26 13:12:00,46.8,30.1,30.05,NE,45,1.0,4.0,52,0.00,,,0.00,WUHU216HW,2013-11-26 20:12:00,
2013-11-26 13:17:00,46.1,29.8,30.05,East,90,3.0,6.0,53,0.00,,,0.00,WUHU216HW,2013-11-26 20:17:00,
2013-11-26 13:22:00,46.1,29.8,30.05,NE,45,2.0,6.0,53,0.00,,,0.00,WUHU216HW,2013-11-26 20:22:00,
2013-11-26 13:27:00,46.8,30.5,30.05,North,0,3.0,5.0,53,0.00,,,0.00,WUHU216HW,2013-11-26 20:27:00,
2013-11-26 13:32:00,47.3,31.4,30.05,West,270,0.0,5.0,54,0.00,,,0.00,WUHU216HW,2013-11-26 20:32:00,
2013-11-26 13:37:00,47.3,30.5,30.05,North,0,1.0,4.0,52,0.00,,,0.00,WUHU216HW,2013-11-26 20:37:00,
2013-11-26 13:42:00,47.2,30.8,30.05,WNW,293,3.0,4.0,53,0.00,,,0.00,WUHU216HW,2013-11-26 20:42:00,
2013-11-26 13:47:00,47.5,31.1,30.04,NNW,338,3.0,5.0,53,0.00,,,0.00,WUHU216HW,2013-11-26 20:47:00,
2013-11-26 13:52:00,47.9,31.1,30.04,North,0,2.0,5.0,52,0.00,,,0.00,WUHU216HW,2013-11-26 20:52:00,
2013-11-26 13:57:00,47.9,31.1,30.04,WSW,248,1.0,4.0,52,0.00,,,0.00,WUHU216HW,2013-11-26 20:57:00,
2013-11-26 14:02:00,48.2,31.3,30.04,WNW,293,2.0,4.0,52,0.00,,,0.00,WUHU216HW,2013-11-26 21:02:00,
2013-11-26 14:07:00,47.9,31.1,30.04,West,270,0.0,3.0,52,0.00,,,0.00,WUHU216HW,2013-11-26 21:07:00,
2013-11-26 14:12:00,48.1,30.7,30.04,West,270,1.0,6.0,51,0.00,,,0.00,WUHU216HW,2013-11-26 21:12:00,
2013-11-26 14:17:00,48.2,31.3,30.04,NNE,23,0.0,6.0,52,0.00,,,0.00,WUHU216HW,2013-11-26 21:17:00,
2013-11-26 14:22:00,48.2,31.3,30.04,WNW,293,2.0,4.0,52,0.00,,,0.00,WUHU216HW,2013-11-26 21:22:00,
2013-11-26 14:27:00,48.6,31.7,30.04,West,270,3.0,4.0,52,0.00,,,0.00,WUHU216HW,2013-11-26 21:27:00,
2013-11-26 14:32:00,48.8,31.0,30.04,NE,45,0.0,4.0,50,0.00,,,0.00,WUHU216HW,2013-11-26 21:32:00,
2013-11-26 14:37:00,48.6,30.8,30.04,WSW,248,4.0,5.0,50,0.00,,,0.00,WUHU216HW,2013-11-26 21:37:00,
2013-11-26 14:42:00,49.0,31.1,30.04,SW,225,3.0,5.0,50,0.00,,,0.00,WUHU216HW,2013-11-26 21:42:00,
2013-11-26 14:47:00,48.8,31.0,30.04,NNE,23,3.0,5.0,50,0.00,,,0.00,WUHU216HW,2013-11-26 21:47:00,
2013-11-26 14:52:00,48.1,29.7,30.04,SW,225,2.0,4.0,49,0.00,,,0.00,WUHU216HW,2013-11-26 21:52:00,
2013-11-26 14:57:00,48.2,30.4,30.04,SW,225,3.0,4.0,50,0.00,,,0.00,WUHU216HW,2013-11-26 21:57:00,
2013-11-26 15:02:00,48.6,31.2,30.04,NW,315,1.0,3.0,51,0.00,,,0.00,WUHU216HW,2013-11-26 22:02:00,
2013-11-26 15:07:00,48.8,31.0,30.04,SE,135,1.0,3.0,50,0.00,,,0.00,WUHU216HW,2013-11-26 22:07:00,
2013-11-26 15:12:00,48.6,30.3,30.04,East,90,1.0,3.0,49,0.00,,,0.00,WUHU216HW,2013-11-26 22:12:00,
2013-11-26 15:17:00,48.2,29.9,30.04,East,90,0.0,3.0,49,0.00,,,0.00,WUHU216HW,2013-11-26 22:17:00,
2013-11-26 15:22:00,48.1,30.2,30.04,SSW,203,0.0,3.0,50,0.00,,,0.00,WUHU216HW,2013-11-26 22:22:00,
2013-11-26 15:27:00,48.2,30.4,30.04,WSW,248,2.0,4.0,50,0.00,,,0.00,WUHU216HW,2013-11-26 22:27:00,
2013-11-26 15:32:00,48.6,30.8,30.04,South,180,2.0,4.0,50,0.00,,,0.00,WUHU216HW,2013-11-26 22:32:00,
2013-11-26 15:37:00,48.6,30.8,30.04,West,270,3.0,3.0,50,0.00,,,0.00,WUHU216HW,2013-11-26 22:37:00,
2013-11-26 15:42:00,48.6,30.3,30.04,SSW,203,2.0,3.0,49,0.00,,,0.00,WUHU216HW,2013-11-26 22:42:00,
2013-11-26 15:47:00,48.4,30.1,30.04,SSW,203,1.0,3.0,49,0.00,,,0.00,WUHU216HW,2013-11-26 22:47:00,
2013-11-26 15:52:00,48.2,30.4,30.04,SW,225,0.0,2.0,50,0.00,,,0.00,WUHU216HW,2013-11-26 22:52:00,
2013-11-26 15:57:00,47.9,29.5,30.04,NE,45,0.0,2.0,49,0.00,,,0.00,WUHU216HW,2013-11-26 22:57:00,
2013-11-26 16:02:00,47.7,30.0,30.04,WNW,293,3.0,3.0,50,0.00,,,0.00,WUHU216HW,2013-11-26 23:02:00,
2013-11-26 16:07:00,47.5,30.3,30.04,WSW,248,0.0,3.0,51,0.00,,,0.00,WUHU216HW,2013-11-26 23:07:00,
2013-11-26 16:12:00,47.3,30.1,30.04,SSW,203,0.0,2.0,51,0.00,,,0.00,WUHU216HW,2013-11-26 23:12:00,
2013-11-26 16:17:00,47.3,30.1,30.04,SSW,203,1.0,3.0,51,0.00,,,0.00,WUHU216HW,2013-11-26 23:17:00,
2013-11-26 16:22:00,47.2,29.9,30.04,SW,225,0.0,3.0,51,0.00,,,0.00,WUHU216HW,2013-11-26 23:22:00,
2013-11-26 16:27:00,47.2,29.9,30.04,SW,225,2.0,2.0,51,0.00,,,0.00,WUHU216HW,2013-11-26 23:27:00,
2013-11-26 16:32:00,46.8,30.1,30.04,West,270,2.0,2.0,52,0.00,,,0.00,WUHU216HW,2013-11-26 23:32:00,
2013-11-26 16:37:00,46.6,29.9,30.04,WSW,248,0.0,2.0,52,0.00,,,0.00,WUHU216HW,2013-11-26 23:37:00,
2013-11-26 16:42:00,46.4,29.7,30.04,WSW,248,0.0,2.0,52,0.00,,,0.00,WUHU216HW,2013-11-26 23:42:00,
2013-11-26 16:47:00,45.9,29.7,30.04,WSW,248,0.0,0.0,53,0.00,,,0.00,WUHU216HW,2013-11-26 23:47:00,
2013-11-26 16:52:00,45.5,29.3,30.04,WSW,248,0.0,0.0,53,0.00,,,0.00,WUHU216HW,2013-11-26 23:52:00,
2013-11-26 16:57:00,45.4,29.6,30.03,WSW,248,0.0,0.0,54,0.00,,,0.00,WUHU216HW,2013-11-26 23:57:00,
2013-11-26 17:02:00,44.8,28.7,30.04,WSW,248,0.0,0.0,53,0.00,,,0.00,WUHU216HW,2013-11-27 00:02:00,
2013-11-26 17:07:00,44.3,28.6,30.04,WSW,248,0.0,0.0,54,0.00,,,0.00,WUHU216HW,2013-11-27 00:07:00,
2013-11-26 17:12:00,43.9,28.3,30.04,SW,225,0.0,0.0,54,0.00,,,0.00,WUHU216HW,2013-11-27 00:12:00,
2013-11-26 17:17:00,43.9,28.7,30.04,SW,225,0.0,0.0,55,0.00,,,0.00,WUHU216HW,2013-11-27 00:17:00,
2013-11-26 17:22:00,43.6,28.5,30.04,South,180,0.0,0.0,55,0.00,,,0.00,WUHU216HW,2013-11-27 00:22:00,
2013-11-26 17:27:00,43.4,28.7,30.04,SE,135,0.0,0.0,56,0.00,,,0.00,WUHU216HW,2013-11-27 00:27:00,
2013-11-26 17:32:00,43.2,28.9,30.04,ESE,113,0.0,0.0,57,0.00,,,0.00,WUHU216HW,2013-11-27 00:32:00,
2013-11-26 17:37:00,42.8,28.6,30.05,ESE,113,0.0,0.0,57,0.00,,,0.00,WUHU216HW,2013-11-27 00:37:00,
2013-11-26 17:42:00,42.8,29.0,30.05,ESE,113,0.0,0.0,58,0.00,,,0.00,WUHU216HW,2013-11-27 00:42:00,
2013-11-26 17:47:00,42.8,29.0,30.05,ESE,113,0.0,0.0,58,0.00,,,0.00,WUHU216HW,2013-11-27 00:47:00,
2013-11-26 17:52:00,42.5,28.7,30.05,ESE,113,0.0,0.0,58,0.00,,,0.00,WUHU216HW,2013-11-27 00:52:00,
2013-11-26 17:57:00,42.3,28.5,30.05,ESE,113,0.0,0.0,58,0.00,,,0.00,WUHU216HW,2013-11-27 00:57:00,
2013-11-26 18:02:00,41.9,28.6,30.05,ENE,68,0.0,1.0,59,0.00,,,0.00,WUHU216HW,2013-11-27 01:02:00,
2013-11-26 18:07:00,41.6,28.7,30.05,ENE,68,0.0,1.0,60,0.00,,,0.00,WUHU216HW,2013-11-27 01:07:00,
2013-11-26 18:12:00,41.4,28.6,30.05,ENE,68,0.0,0.0,60,0.00,,,0.00,WUHU216HW,2013-11-27 01:12:00,
2013-11-26 18:17:00,41.2,28.8,30.05,ENE,68,0.0,0.0,61,0.00,,,0.00,WUHU216HW,2013-11-27 01:17:00,
2013-11-26 18:22:00,41.0,29.0,30.06,ENE,68,0.0,0.0,62,0.00,,,0.00,WUHU216HW,2013-11-27 01:22:00,
2013-11-26 18:27:00,40.9,28.8,30.05,East,90,0.0,1.0,62,0.00,,,0.00,WUHU216HW,2013-11-27 01:27:00,
2013-11-26 18:32:00,40.7,28.6,30.06,ESE,113,1.0,1.0,62,0.00,,,0.00,WUHU216HW,2013-11-27 01:32:00,
2013-11-26 18:37:00,40.5,28.4,30.06,East,90,2.0,2.0,62,0.00,,,0.00,WUHU216HW,2013-11-27 01:37:00,
2013-11-26 18:42:00,40.3,28.7,30.06,East,90,1.0,2.0,63,0.00,,,0.00,WUHU216HW,2013-11-27 01:42:00,
2013-11-26 18:47:00,40.3,28.7,30.06,East,90,1.0,2.0,63,0.00,,,0.00,WUHU216HW,2013-11-27 01:47:00,
2013-11-26 18:52:00,40.0,28.4,30.06,East,90,1.0,2.0,63,0.00,,,0.00,WUHU216HW,2013-11-27 01:52:00,
2013-11-26 18:57:00,40.0,28.4,30.06,East,90,1.0,2.0,63,0.00,,,0.00,WUHU216HW,2013-11-27 01:57:00,
2013-11-26 19:02:00,39.6,28.0,30.06,ENE,68,2.0,2.0,63,0.00,,,0.00,WUHU216HW,2013-11-27 02:02:00,
2013-11-26 19:07:00,39.4,27.8,30.06,East,90,2.0,2.0,63,0.00,,,0.00,WUHU216HW,2013-11-27 02:07:00,
2013-11-26 19:12:00,39.4,27.8,30.06,ENE,68,1.0,2.0,63,0.00,,,0.00,WUHU216HW,2013-11-27 02:12:00,
2013-11-26 19:17:00,39.2,28.0,30.06,East,90,2.0,3.0,64,0.00,,,0.00,WUHU216HW,2013-11-27 02:17:00,
2013-11-26 19:22:00,38.9,27.6,30.06,East,90,2.0,3.0,64,0.00,,,0.00,WUHU216HW,2013-11-27 02:22:00,
2013-11-26 19:27:00,38.9,27.6,30.06,ESE,113,0.0,2.0,64,0.00,,,0.00,WUHU216HW,2013-11-27 02:27:00,
2013-11-26 19:32:00,38.5,27.4,30.06,ESE,113,1.0,2.0,64,0.00,,,0.00,WUHU216HW,2013-11-27 02:32:00,
2013-11-26 19:37:00,38.5,27.4,30.06,ESE,113,1.0,2.0,64,0.00,,,0.00,WUHU216HW,2013-11-27 02:37:00,
2013-11-26 19:42:00,38.3,27.5,30.06,ESE,113,1.0,2.0,65,0.00,,,0.00,WUHU216HW,2013-11-27 02:42:00,
2013-11-26 19:47:00,38.2,27.4,30.06,East,90,1.0,2.0,65,0.00,,,0.00,WUHU216HW,2013-11-27 02:47:00,
2013-11-26 19:52:00,38.2,27.4,30.06,East,90,1.0,2.0,65,0.00,,,0.00,WUHU216HW,2013-11-27 02:52:00,
2013-11-26 19:57:00,37.8,27.5,30.06,ESE,113,1.0,1.0,66,0.00,,,0.00,WUHU216HW,2013-11-27 02:57:00,
2013-11-26 20:02:00,37.8,27.5,30.06,East,90,0.0,1.0,66,0.00,,,0.00,WUHU216HW,2013-11-27 03:02:00,
2013-11-26 20:07:00,37.6,27.6,30.06,NNW,338,1.0,1.0,67,0.00,,,0.00,WUHU216HW,2013-11-27 03:07:00,
2013-11-26 20:12:00,37.6,27.6,30.06,ENE,68,1.0,2.0,67,0.00,,,0.00,WUHU216HW,2013-11-27 03:12:00,
2013-11-26 20:17:00,37.6,27.6,30.06,ENE,68,0.0,2.0,67,0.00,,,0.00,WUHU216HW,2013-11-27 03:17:00,
2013-11-26 20:22:00,37.4,27.5,30.07,NW,315,2.0,3.0,67,0.00,,,0.00,WUHU216HW,2013-11-27 03:22:00,
2013-11-26 20:27:00,37.3,27.3,30.07,NW,315,2.0,3.0,67,0.00,,,0.00,WUHU216HW,2013-11-27 03:27:00,
2013-11-26 20:32:00,37.3,27.7,30.07,NNW,338,1.0,2.0,68,0.00,,,0.00,WUHU216HW,2013-11-27 03:32:00,
2013-11-26 20:37:00,37.4,28.3,30.07,North,0,0.0,2.0,69,0.00,,,0.00,WUHU216HW,2013-11-27 03:37:00,
2013-11-26 20:42:00,37.4,28.3,30.07,NNE,23,1.0,1.0,69,0.00,,,0.00,WUHU216HW,2013-11-27 03:42:00,
2013-11-26 20:47:00,37.6,28.0,30.07,North,0,0.0,1.0,68,0.00,,,0.00,WUHU216HW,2013-11-27 03:47:00,
2013-11-26 20:52:00,37.6,28.0,30.07,NNW,338,1.0,1.0,68,0.00,,,0.00,WUHU216HW,2013-11-27 03:52:00,
2013-11-26 20:57:00,37.4,27.9,30.07,North,0,0.0,1.0,68,0.00,,,0.00,WUHU216HW,2013-11-27 03:57:00,
2013-11-26 21:02:00,37.1,27.9,30.07,North,0,0.0,1.0,69,0.00,,,0.00,WUHU216HW,2013-11-27 04:02:00,
2013-11-26 21:07:00,36.7,27.6,30.06,North,0,0.0,0.0,69,0.00,,,0.00,WUHU216HW,2013-11-27 04:07:00,
2013-11-26 21:12:00,36.5,27.4,30.06,North,0,0.0,0.0,69,0.00,,,0.00,WUHU216HW,2013-11-27 04:12:00,
2013-11-26 21:17:00,36.2,27.0,30.06,North,0,0.0,0.0,69,0.00,,,0.00,WUHU216HW,2013-11-27 04:17:00,
2013-11-26 21:22:00,36.0,27.2,30.07,North,0,0.0,0.0,70,0.00,,,0.00,WUHU216HW,2013-11-27 04:22:00,
2013-11-26 21:27:00,35.6,26.8,30.06,North,0,0.0,0.0,70,0.00,,,0.00,WUHU216HW,2013-11-27 04:27:00,
2013-11-26 21:32:00,35.3,26.8,30.06,WSW,248,1.0,1.0,71,0.00,,,0.00,WUHU216HW,2013-11-27 04:32:00,
2013-11-26 21:37:00,35.1,26.7,30.06,West,270,0.0,1.0,71,0.00,,,0.00,WUHU216HW,2013-11-27 04:37:00,
2013-11-26 21:42:00,34.9,27.1,30.06,SW,225,0.0,1.0,73,0.00,,,0.00,WUHU216HW,2013-11-27 04:42:00,
2013-11-26 21:47:00,34.6,26.7,30.07,SW,225,0.0,1.0,73,0.00,,,0.00,WUHU216HW,2013-11-27 04:47:00,
2013-11-26 21:52:00,34.4,26.6,30.07,North,0,0.0,0.0,73,0.00,,,0.00,WUHU216HW,2013-11-27 04:52:00,
2013-11-26 21:57:00,34.2,26.4,30.07,North,0,0.0,0.0,73,0.00,,,0.00,WUHU216HW,2013-11-27 04:57:00,
2013-11-26 22:01:00,34.2,26.4,30.07,NNE,23,0.0,0.0,73,0.00,,,0.00,WUHU216HW,2013-11-27 05:01:00,
2013-11-26 22:03:00,34.0,26.2,30.07,NW,315,0.0,0.0,73,0.00,,,0.00,WUHU216HW,2013-11-27 05:03:00,
2013-11-26 22:08:00,34.0,26.2,30.07,NNW,338,0.0,2.0,73,0.00,,,0.00,WUHU216HW,2013-11-27 05:08:00,
2013-11-26 22:13:00,33.8,26.0,30.07,NW,315,1.0,2.0,73,0.00,,,0.00,WUHU216HW,2013-11-27 05:13:00,
2013-11-26 22:18:00,33.8,26.0,30.07,NW,315,0.0,2.0,73,0.00,,,0.00,WUHU216HW,2013-11-27 05:18:00,
2013-11-26 22:23:00,33.8,26.0,30.07,NNW,338,0.0,1.0,73,0.00,,,0.00,WUHU216HW,2013-11-27 05:23:00,
2013-11-26 22:28:00,33.8,26.0,30.07,NW,315,0.0,1.0,73,0.00,,,0.00,WUHU216HW,2013-11-27 05:28:00,
2013-11-26 22:33:00,33.8,26.0,30.07,NW,315,0.0,1.0,73,0.00,,,0.00,WUHU216HW,2013-11-27 05:33:00,
2013-11-26 22:38:00,33.5,26.3,30.07,SSW,203,0.0,0.0,75,0.00,,,0.00,WUHU216HW,2013-11-27 05:38:00,
2013-11-26 22:43:00,33.1,25.7,30.07,SSE,158,0.0,1.0,74,0.00,,,0.00,WUHU216HW,2013-11-27 05:43:00,
2013-11-26 22:48:00,32.9,25.8,30.07,SSE,158,0.0,1.0,75,0.00,,,0.00,WUHU216HW,2013-11-27 05:48:00,
2013-11-26 22:53:00,32.8,25.7,30.07,SSE,158,0.0,0.0,75,0.00,,,0.00,WUHU216HW,2013-11-27 05:53:00,
2013-11-26 22:58:00,32.6,25.8,30.07,SSE,158,0.0,0.0,76,0.00,,,0.00,WUHU216HW,2013-11-27 05:58:00,
2013-11-26 23:03:00,32.2,25.5,30.07,SSW,203,0.0,0.0,76,0.00,,,0.00,WUHU216HW,2013-11-27 06:03:00,
2013-11-26 23:08:00,32.0,25.4,30.07,NW,315,0.0,1.0,76,0.00,,,0.00,WUHU216HW,2013-11-27 06:08:00,
2013-11-26 23:13:00,32.0,25.4,30.07,NW,315,0.0,1.0,76,0.00,,,0.00,WUHU216HW,2013-11-27 06:13:00,
2013-11-26 23:18:00,32.0,25.4,30.07,NNW,338,0.0,1.0,76,0.00,,,0.00,WUHU216HW,2013-11-27 06:18:00,
2013-11-26 23:23:00,32.0,25.4,30.07,North,0,0.0,1.0,76,0.00,,,0.00,WUHU216HW,2013-11-27 06:23:00,
2013-11-26 23:28:00,32.2,25.5,30.07,North,0,0.0,1.0,76,0.00,,,0.00,WUHU216HW,2013-11-27 06:28:00,
2013-11-26 23:33:00,32.2,25.5,30.07,North,0,0.0,1.0,76,0.00,,,0.00,WUHU216HW,2013-11-27 06:33:00,
2013-11-26 23:38:00,32.4,25.7,30.07,North,0,0.0,0.0,76,0.00,,,0.00,WUHU216HW,2013-11-27 06:38:00,
2013-11-26 23:43:00,32.2,25.5,30.07,North,0,0.0,0.0,76,0.00,,,0.00,WUHU216HW,2013-11-27 06:43:00,
2013-11-26 23:48:00,32.0,25.4,30.07,ENE,68,0.0,0.0,76,0.00,,,0.00,WUHU216HW,2013-11-27 06:48:00,
2013-11-26 23:53:00,31.9,25.8,30.07,East,90,0.0,0.0,78,0.00,,,0.00,WUHU216HW,2013-11-27 06:53:00,
2013-11-26 23:58:00,31.7,25.3,30.07,North,0,0.0,0.0,77,0.00,,,0.00,WUHU216HW,2013-11-27 06:58:00,